This is the latest recevied weather packets stored in our database for station/object KM4LTG. If no packets are shown the sender has not sent any weather packets the latest 10 day(s).
| Time | Temp. | Humidity | Pressure | Rain* | Wind** | Luminosity | Snow |
|---|---|---|---|---|---|---|---|
| 1777835125 | 25.56° C | 59% | 1017.7 hPa | 0 mm | - | - | - |
| 1777834845 | 25.56° C | 59% | 1017.9 hPa | 0 mm | - | - | - |
| 1777834585 | 25.56° C | 60% | 1017.8 hPa | 0 mm | - | - | - |
| 1777834320 | 25° C | 61% | 1018 hPa | 0 mm | - | - | - |
| 1777833765 | 24.44° C | 62% | 1018.3 hPa | 0 mm | - | - | - |
| 1777833480 | 24.44° C | 62% | 1018.4 hPa | 0 mm | - | - | - |
| 1777832945 | 24.44° C | 62% | 1018.3 hPa | 0 mm | - | - | - |
| 1777831849 | 24.44° C | 62% | 1018.5 hPa | 0 mm | - | - | - |
| 1777831550 | 24.44° C | 63% | 1018.6 hPa | 0 mm | - | - | - |
| 1777831270 | 23.89° C | 63% | 1018.7 hPa | 0 mm | - | - | - |
| 1777831025 | 23.89° C | 64% | 1018.8 hPa | 0 mm | - | - | - |
| 1777829155 | 23.89° C | 65% | 1018.9 hPa | 0 mm | - | - | - |
| 1777828885 | 23.89° C | 64% | 1019 hPa | 0 mm | - | - | - |
| 1777828610 | 23.89° C | 64% | 1019 hPa | 0 mm | - | - | - |
| 1777828310 | 23.89° C | 65% | 1019 hPa | 0 mm | - | - | - |
| 1777828010 | 23.89° C | 65% | 1019.1 hPa | 0 mm | - | - | - |
| 1777827740 | 23.33° C | 66% | 1019.1 hPa | 0 mm | - | - | - |
| 1777827450 | 23.33° C | 66% | 1019 hPa | 0 mm | - | - | - |
| 1777826610 | 22.78° C | 66% | 1019.2 hPa | 0 mm | - | - | - |
| 1777826030 | 23.33° C | 65% | 1019.3 hPa | 0 mm | - | - | - |
| 1777825740 | 23.33° C | 65% | 1019.3 hPa | 0 mm | - | - | - |
| 1777825455 | 22.78° C | 66% | 1019.3 hPa | 0 mm | - | - | - |
| 1777825215 | 22.22° C | 67% | 1019.3 hPa | 0 mm | - | - | - |
| 1777824935 | 22.22° C | 67% | 1019.3 hPa | 0 mm | - | - | - |
| 1777824405 | 22.22° C | 66% | 1019.5 hPa | 0 mm | - | - | - |
* Rain latest hour (hover to see other rain measurements)
** Current wind speed in m/s (hover to see current wind gust speed)